Tracking 35274 objects as of 12-Sep-2026
HD Live streaming from Space Station
objects crossing your sky now

STARLINK-2084

Track STARLINK-2084 now!
10-day predictions
STARLINK-2084 is classified as:


NORAD ID: 47368
Int'l Code: 2021-005V
Launch date: January 20, 2021
Source: United States (US)
Launch site: AIR FORCE EASTERN TEST RANGE (AFETR)
Your satellite tracking list
Your tracking list is empty




NASA's NSSDC Master Catalog

Two Line Element Set (TLE):
1 47368U 21005V   26254.11347390  .00000659  00000-0  32994-4 0  9994
2 47368  53.1598 279.5957 0001206  88.6246 271.4894 15.31694601311442
Source of the keplerian elements: AFSPC